When you browse on this site, cookies collect data to enhance your experience and personalize the content and advertising you see.
Visit our Privacy Policy to learn more. By continuing to use the site, you agree to this use of cookies and data.
  • In Portugal
  • List of Countries
  • For 7 days
  • Water Temperature
  • Satellite Maps
  • Weather Map
  • Weather Widgets
  • user-avatar
    Login

    Hourly Weather Cobija

    Today, 19 February, Tuesday

    Time Temperature Precipitation Wind Pressure Humidity
    00:00 +23°C° 0 mm 0 mps 738 mmHg 95%
    01:00 +23°C° 0 mm 0 mps 738 mmHg 96%
    02:00 +23°C° 0.2 mm 0 mps 738 mmHg 96%
    03:00 +23°C° 0.2 mm 0 mps 738 mmHg 96%
    04:00 +22°C° 0.2 mm 0 mps 738 mmHg 96%
    05:00 +23°C° 0.2 mm 0 mps 738 mmHg 95%
    06:00 +23°C° 0.2 mm 0 mps 739 mmHg 94%
    07:00 +23°C° 0.2 mm 0 mps 739 mmHg 93%
    08:00 +27°C° 0.1 mm 1 mps 739 mmHg 88%
    09:00 +28°C° 0.1 mm 1 mps 740 mmHg 84%
    10:00 +29°C° 0.1 mm 1 mps 740 mmHg 79%
    11:00 +31°C° 0.4 mm 1 mps 739 mmHg 70%
    12:00 +32°C° 0.4 mm 1 mps 738 mmHg 62%
    13:00 +35°C° 0.4 mm 2 mps 738 mmHg 53%
    14:00 +35°C° 0 mm 2 mps 737 mmHg 53%
    15:00 +35°C° 0 mm 2 mps 736 mmHg 53%
    16:00 +35°C° 0 mm 2 mps 735 mmHg 53%
    17:00 +32°C° 0 mm 1 mps 735 mmHg 62%
    18:00 +30°C° 0 mm 1 mps 735 mmHg 71%
    19:00 +28°C° 0 mm 1 mps 736 mmHg 79%
    20:00 +27°C° 0 mm 1 mps 736 mmHg 81%
    21:00 +27°C° 0 mm 1 mps 737 mmHg 84%
    22:00 +24°C° 0 mm 0 mps 738 mmHg 86%
    23:00 +24°C° 0 mm 0 mps 738 mmHg 87%

    Tomorrow, 20 February, Wednesday

    Time Temperature Precipitation Wind Pressure Humidity
    00:00 +24°C° 0 mm 0 mps 737 mmHg 88%
    01:00 +23°C° 0 mm 0 mps 737 mmHg 89%
    02:00 +23°C° 0 mm 0 mps 737 mmHg 90%
    03:00 +23°C° 0 mm 0 mps 737 mmHg 91%
    04:00 +23°C° 0 mm 0 mps 737 mmHg 93%
    05:00 +23°C° 0 mm 0 mps 737 mmHg 90%
    06:00 +24°C° 0 mm 0 mps 738 mmHg 88%
    07:00 +25°C° 0 mm 0 mps 738 mmHg 85%
    08:00 +27°C° 0.1 mm 0 mps 739 mmHg 77%
    09:00 +31°C° 0.1 mm 1 mps 739 mmHg 70%
    10:00 +33°C° 0.1 mm 1 mps 739 mmHg 62%
    11:00 +32°C° 0.9 mm 1 mps 738 mmHg 69%
    12:00 +32°C° 0.9 mm 1 mps 737 mmHg 76%
    13:00 +31°C° 0.9 mm 1 mps 736 mmHg 84%
    14:00 +31°C° 0.4 mm 1 mps 736 mmHg 79%
    15:00 +32°C° 0.4 mm 1 mps 735 mmHg 74%
    16:00 +32°C° 0.4 mm 1 mps 735 mmHg 70%
    17:00 +30°C° 0.1 mm 1 mps 735 mmHg 76%
    18:00 +29°C° 0.1 mm 1 mps 735 mmHg 83%
    19:00 +25°C° 0.1 mm 0 mps 736 mmHg 90%
    20:00 +25°C° 0.1 mm 0 mps 736 mmHg 90%
    21:00 +25°C° 0.1 mm 0 mps 737 mmHg 91%
    22:00 +24°C° 0.1 mm 0 mps 738 mmHg 91%
    23:00 +24°C° 0 mm 0 mps 738 mmHg 92%

    Day after tomorrow, 21 February, Thursday

    Time Temperature Precipitation Wind Pressure Humidity
    00:00 +24°C° 0 mm 0 mps 737 mmHg 93%
    01:00 +24°C° 0 mm 0 mps 737 mmHg 94%
    02:00 +23°C° 0.1 mm 0 mps 737 mmHg 95%
    03:00 +23°C° 0.1 mm 0 mps 737 mmHg 97%
    04:00 +23°C° 0.1 mm 0 mps 737 mmHg 98%
    05:00 +23°C° 0.7 mm 0 mps 737 mmHg 96%
    06:00 +24°C° 0.7 mm 0 mps 738 mmHg 95%
    07:00 +24°C° 0.7 mm 0 mps 739 mmHg 93%
    08:00 +27°C° 0.9 mm 1 mps 739 mmHg 91%
    09:00 +29°C° 0.9 mm 1 mps 740 mmHg 88%
    10:00 +30°C° 0.9 mm 1 mps 740 mmHg 85%
    11:00 +31°C° 0.4 mm 1 mps 739 mmHg 76%
    12:00 +32°C° 0.4 mm 1 mps 738 mmHg 68%
    13:00 +33°C° 0.4 mm 1 mps 738 mmHg 59%
    14:00 +33°C° 0.2 mm 1 mps 737 mmHg 60%
    15:00 +33°C° 0.2 mm 1 mps 736 mmHg 62%
    16:00 +33°C° 0.2 mm 1 mps 735 mmHg 64%
    17:00 +31°C° 0 mm 1 mps 735 mmHg 72%
    18:00 +29°C° 0 mm 1 mps 735 mmHg 80%
    19:00 +27°C° 0 mm 1 mps 736 mmHg 89%
    20:00 +27°C° 0 mm 1 mps 736 mmHg 90%
    21:00 +27°C° 0 mm 1 mps 737 mmHg 92%
    22:00 +26°C° 0 mm 1 mps 738 mmHg 93%
    23:00 +26°C° 0 mm 1 mps 738 mmHg 93%

    22 February, Friday

    Time Temperature Precipitation Wind Pressure Humidity
    00:00 +26°C° 0 mm 1 mps 737 mmHg 93%
    01:00 +25°C° 0 mm 1 mps 737 mmHg 93%
    02:00 +25°C° 0 mm 1 mps 737 mmHg 94%
    03:00 +23°C° 0 mm 0 mps 737 mmHg 95%
    04:00 +23°C° 0 mm 0 mps 737 mmHg 96%
    05:00 +23°C° 0.1 mm 0 mps 737 mmHg 93%
    06:00 +24°C° 0.1 mm 0 mps 738 mmHg 89%
    07:00 +25°C° 0.1 mm 0 mps 739 mmHg 86%
    08:00 +27°C° 1.1 mm 0 mps 739 mmHg 83%
    09:00 +30°C° 1.1 mm 1 mps 739 mmHg 80%
    10:00 +32°C° 1.1 mm 1 mps 739 mmHg 77%
    11:00 +32°C° 0.7 mm 1 mps 739 mmHg 72%
    12:00 +33°C° 0.7 mm 1 mps 738 mmHg 67%
    13:00 +34°C° 0.7 mm 1 mps 737 mmHg 63%
    14:00 +34°C° 0 mm 1 mps 736 mmHg 61%
    15:00 +34°C° 0 mm 2 mps 736 mmHg 59%
    16:00 +34°C° 0 mm 2 mps 735 mmHg 57%
    17:00 +32°C° 0 mm 2 mps 736 mmHg 66%
    18:00 +30°C° 0 mm 1 mps 736 mmHg 74%
    19:00 +28°C° 0 mm 1 mps 737 mmHg 82%
    20:00 +28°C° 0 mm 1 mps 738 mmHg 85%
    21:00 +27°C° 0 mm 1 mps 738 mmHg 87%
    22:00 +27°C° 0 mm 1 mps 739 mmHg 89%
    23:00 +26°C° 0 mm 1 mps 738 mmHg 91%

    23 February, Saturday

    Time Temperature Precipitation Wind Pressure Humidity
    00:00 +26°C° 0 mm 1 mps 738 mmHg 92%
    01:00 +25°C° 0 mm 1 mps 737 mmHg 93%
    02:00 +25°C° 0 mm 1 mps 737 mmHg 94%
    03:00 +25°C° 0 mm 1 mps 737 mmHg 95%
    04:00 +23°C° 0 mm 0 mps 737 mmHg 96%
    05:00 +23°C° 0 mm 0 mps 738 mmHg 93%
    06:00 +24°C° 0 mm 0 mps 738 mmHg 91%
    07:00 +24°C° 0 mm 0 mps 739 mmHg 88%
    08:00 +28°C° 0.3 mm 1 mps 739 mmHg 85%
    09:00 +29°C° 0.3 mm 1 mps 739 mmHg 82%
    10:00 +30°C° 0.3 mm 1 mps 739 mmHg 79%
    11:00 +30°C° 1 mm 1 mps 738 mmHg 78%
    12:00 +31°C° 1 mm 1 mps 737 mmHg 77%
    13:00 +31°C° 1 mm 1 mps 736 mmHg 76%
    14:00 +31°C° 0.2 mm 1 mps 735 mmHg 73%
    15:00 +31°C° 0.2 mm 1 mps 735 mmHg 70%
    16:00 +31°C° 0.2 mm 1 mps 734 mmHg 68%
    17:00 +30°C° 0 mm 1 mps 734 mmHg 76%
    18:00 +28°C° 0 mm 1 mps 735 mmHg 84%
    19:00 +27°C° 0 mm 1 mps 735 mmHg 92%
    20:00 +27°C° 0 mm 1 mps 736 mmHg 93%
    21:00 +26°C° 0 mm 1 mps 736 mmHg 95%
    22:00 +26°C° 0 mm 1 mps 737 mmHg 97%
    23:00 +26°C° 0 mm 1 mps 737 mmHg 97%

    24 February, Sunday

    Time Temperature Precipitation Wind Pressure Humidity
    00:00 +25°C° 0 mm 1 mps 736 mmHg 98%
    01:00 +25°C° 0 mm 1 mps 736 mmHg 98%
    02:00 +25°C° 1.4 mm 1 mps 736 mmHg 98%
    03:00 +25°C° 1.4 mm 1 mps 736 mmHg 99%
    04:00 +22°C° 1.4 mm 0 mps 736 mmHg 99%
    05:00 +25°C° 0.7 mm 1 mps 736 mmHg 99%
    06:00 +25°C° 0.7 mm 1 mps 737 mmHg 98%
    07:00 +25°C° 0.7 mm 1 mps 738 mmHg 98%
    08:00 +26°C° 1 mm 1 mps 738 mmHg 97%
    09:00 +27°C° 1 mm 2 mps 738 mmHg 95%
    10:00 +28°C° 1 mm 2 mps 738 mmHg 94%
    11:00 +29°C° 0.6 mm 2 mps 737 mmHg 84%
    12:00 +31°C° 0.6 mm 2 mps 736 mmHg 74%
    13:00 +32°C° 0.6 mm 2 mps 735 mmHg 64%
    14:00 +32°C° 0.2 mm 2 mps 735 mmHg 65%
    15:00 +32°C° 0.2 mm 2 mps 734 mmHg 66%
    16:00 +31°C° 0.2 mm 2 mps 733 mmHg 67%
    17:00 +30°C° 0 mm 2 mps 734 mmHg 74%
    18:00 +28°C° 0 mm 1 mps 734 mmHg 80%
    19:00 +27°C° 0 mm 1 mps 735 mmHg 87%
    20:00 +27°C° 0 mm 1 mps 735 mmHg 87%
    21:00 +27°C° 0 mm 1 mps 736 mmHg 88%
    22:00 +26°C° 0 mm 1 mps 736 mmHg 88%
    23:00 +26°C° 0 mm 1 mps 736 mmHg 89%
    Show more